This is the latest recevied weather packets stored in our database for station/object WX7FGZ-6. If no packets are shown the sender has not sent any weather packets the latest 10 day(s).
| Time | Temp. | Humidity | Pressure | Rain* | Wind** | Luminosity | Snow |
|---|---|---|---|---|---|---|---|
| 1777492258 | 7.78° C | 33% | 1022.6 hPa | 0 mm | - | - | - |
| 1777491958 | 7.78° C | 34% | 1022.6 hPa | 0 mm | - | - | - |
| 1777491658 | 7.22° C | 33% | 1022.7 hPa | 0 mm | - | - | - |
| 1777491359 | 6.67° C | 35% | 1022.5 hPa | 0 mm | - | - | - |
| 1777491058 | 6.11° C | 28% | 1022.1 hPa | 0 mm | - | - | - |
| 1777490758 | 6.67° C | 27% | 1022 hPa | 0 mm | - | - | - |
| 1777490458 | 6.11° C | 29% | 1022 hPa | 0 mm | - | - | - |
| 1777490158 | 6.11° C | 27% | 1021.9 hPa | 0 mm | - | - | - |
| 1777489858 | 5.56° C | 28% | 1021.8 hPa | 0 mm | - | - | - |
| 1777489558 | 5.56° C | 29% | 1021.9 hPa | 0 mm | - | - | - |
| 1777489258 | 5.56° C | 30% | 1021.9 hPa | 0 mm | - | - | - |
| 1777488958 | 5.56° C | 30% | 1021.8 hPa | 0 mm | - | - | - |
| 1777488658 | 5° C | 34% | 1021.8 hPa | 0 mm | - | - | - |
| 1777488358 | 4.44° C | 38% | 1021.8 hPa | 0 mm | - | - | - |
| 1777488058 | 3.89° C | 32% | 1021.8 hPa | 0 mm | - | - | - |
| 1777487758 | 4.44° C | 31% | 1022.1 hPa | 0 mm | - | - | - |
| 1777487458 | 4.44° C | 35% | 1022.1 hPa | 0 mm | - | - | - |
| 1777487158 | 4.44° C | 33% | 1022.3 hPa | 0 mm | - | - | - |
| 1777486858 | 4.44° C | 33% | 1022.6 hPa | 0 mm | - | - | - |
| 1777486558 | 4.44° C | 35% | 1022.6 hPa | 0 mm | - | - | - |
| 1777486258 | 4.44° C | 30% | 1022.9 hPa | 0 mm | - | - | - |
| 1777485958 | 3.89° C | 33% | 1023 hPa | 0 mm | - | - | - |
| 1777485658 | 3.89° C | 31% | 1023.1 hPa | 0 mm | - | - | - |
| 1777485359 | 4.44° C | 29% | 1023.2 hPa | 0 mm | - | - | - |
| 1777485059 | 3.89° C | 32% | 1022.9 hPa | 0 mm | - | - | - |
* Rain latest hour (hover to see other rain measurements)
** Current wind speed in m/s (hover to see current wind gust speed)